Change the Weather History Date:

Sunday, May 11, 2014

  Actual Average Record
Temperature  
Mean Temperature 76 °F -  
Max Temperature 84 °F 76 °F 91 °F (2005)
Min Temperature 68 °F 57 °F 46 °F (1997)
Cooling Degree Days 11    
Growing Degree Days 26 (Base 50)    
Moisture  
Dew Point 68 °F    
Average Humidity 76    
Maximum Humidity 88    
Minimum Humidity 62    
Precipitation  
Precipitation 0.00 in - - ()
Sea Level Pressure  
Sea Level Pressure 29.93 in    
Wind  
Wind Speed 10 mph (South)    
Max Wind Speed 20 mph    
Max Gust Speed 26 mph    
Visibility 10 miles    
Events      
Averages and records for this station are not official NWS values.
T = Trace of Precipitation, MM = Missing Value Source: NWS Daily Summary

Daily Weather History Graph

Daily Weather History Graph

Search for Another Location

Airport or City:

Trip Planner

Search our weather history database for the weather conditions in past years. The results will help you decide how hot, cold, wet, or windy it might be!

Date:

Astronomy

May. 11, 2014 Rise Set
Actual Time 6:00 AM CDT 7:59 PM CDT
Civil Twilight 5:32 AM CDT 8:27 PM CDT
Nautical Twilight 4:58 AM CDT 9:02 PM CDT
Astronomical Twilight 4:21 AM CDT 9:39 PM CDT
Moon 5:01 PM CDT (5/11) 3:59 AM CDT (5/11)
Length of Visible Light 14h 55m
Length of Day
13h 58m
Waxing Gibbous, 89% of the Moon is Illuminated
May 11
Waxing Gibbous
May 14
Full
May 21
Last Quarter
May 28
New
Jun 5
First Quarter

Hourly Weather History & Observations

Time (CDT) Temp. Heat Index Dew Point Humidity Pressure Visibility Wind Dir Wind Speed Gust Speed Precip Events Conditions
12:15 AM 69.8 °F - 64.4 °F 83% 29.93 in 10.0 mi SSE 5.8 mph - N/A   Clear
12:35 AM 69.8 °F - 64.4 °F 83% 29.94 in 10.0 mi SSE 5.8 mph - N/A   Clear
12:55 AM 69.8 °F - 64.4 °F 83% 29.93 in 10.0 mi South 6.9 mph - N/A   Clear
1:15 AM 69.8 °F - 64.4 °F 83% 29.93 in 10.0 mi SSE 8.1 mph - N/A   Clear
1:35 AM 69.8 °F - 64.4 °F 83% 29.93 in 10.0 mi South 6.9 mph - N/A   Clear
1:55 AM 69.8 °F - 64.4 °F 83% 29.93 in 10.0 mi South 9.2 mph - N/A   Clear
2:15 AM 69.8 °F - 64.4 °F 83% 29.93 in 10.0 mi South 10.4 mph - N/A   Clear
2:35 AM 69.8 °F - 64.4 °F 83% 29.92 in 10.0 mi South 8.1 mph - N/A   Clear
2:55 AM 69.8 °F - 64.4 °F 83% 29.92 in 10.0 mi South 8.1 mph - N/A   Clear
3:15 AM 69.8 °F - 64.4 °F 83% 29.93 in 10.0 mi South 8.1 mph - N/A   Clear
3:35 AM 69.8 °F - 64.4 °F 83% 29.93 in 10.0 mi South 6.9 mph - N/A   Clear
3:55 AM 69.8 °F - 62.6 °F 78% 29.93 in 10.0 mi South 6.9 mph - N/A   Clear
4:15 AM 68.0 °F - 62.6 °F 83% 29.93 in 10.0 mi South 6.9 mph - N/A   Clear
4:35 AM 69.8 °F - 64.4 °F 83% 29.93 in 10.0 mi South 6.9 mph - N/A   Clear
4:55 AM 69.8 °F - 64.4 °F 83% 29.93 in 10.0 mi South 9.2 mph - N/A   Clear
5:15 AM 69.8 °F - 64.4 °F 83% 29.93 in 10.0 mi South 10.4 mph - N/A   Partly Cloudy
5:35 AM 69.8 °F - 64.4 °F 83% 29.93 in 10.0 mi SSE 9.2 mph - N/A   Partly Cloudy
5:55 AM 69.8 °F - 64.4 °F 83% 29.93 in 10.0 mi South 8.1 mph - N/A   Clear
6:15 AM 69.8 °F - 64.4 °F 83% 29.94 in 10.0 mi South 8.1 mph - N/A   Clear
6:35 AM 69.8 °F - 64.4 °F 83% 29.95 in 10.0 mi SSE 8.1 mph - N/A   Clear
6:55 AM 69.8 °F - 64.4 °F 83% 29.96 in 10.0 mi SSE 9.2 mph - N/A   Clear
7:15 AM 71.6 °F - 66.2 °F 83% 29.96 in 10.0 mi SSE 9.2 mph - N/A   Clear
7:35 AM 71.6 °F - 66.2 °F 83% 29.96 in 10.0 mi South 10.4 mph - N/A   Partly Cloudy
7:55 AM 71.6 °F - 66.2 °F 83% 29.96 in 10.0 mi South 11.5 mph - N/A   Mostly Cloudy
8:15 AM 71.6 °F - 68.0 °F 88% 29.96 in 10.0 mi South 12.7 mph - N/A   Overcast
8:35 AM 73.4 °F - 68.0 °F 83% 29.97 in 10.0 mi South 13.8 mph - N/A   Overcast
8:55 AM 73.4 °F - 68.0 °F 83% 29.97 in 10.0 mi South 12.7 mph - N/A   Overcast
9:15 AM 73.4 °F - 68.0 °F 83% 29.97 in 10.0 mi South 12.7 mph - N/A   Overcast
9:35 AM 75.2 °F - 69.8 °F 83% 29.97 in 10.0 mi South 13.8 mph - N/A   Overcast
9:55 AM 75.2 °F - 69.8 °F 83% 29.97 in 10.0 mi SSW 16.1 mph 19.6 mph N/A   Overcast
10:15 AM 75.2 °F - 68.0 °F 78% 29.97 in 10.0 mi South 18.4 mph - N/A   Overcast
10:35 AM 77.0 °F - 69.8 °F 78% 29.97 in 10.0 mi South 19.6 mph - N/A   Overcast
10:55 AM 75.2 °F - 68.0 °F 78% 29.98 in 10.0 mi South 13.8 mph - N/A   Overcast
11:15 AM 77.0 °F - 69.8 °F 78% 29.99 in 10.0 mi SSW 15.0 mph - N/A   Overcast
11:35 AM 77.0 °F - 69.8 °F 78% 29.99 in 10.0 mi South 17.3 mph - N/A   Mostly Cloudy
11:55 AM 78.8 °F - 69.8 °F 74% 29.99 in 10.0 mi South 16.1 mph 21.9 mph N/A   Mostly Cloudy
12:15 PM 78.8 °F - 69.8 °F 74% 29.99 in 10.0 mi SSW 18.4 mph 23.0 mph N/A   Mostly Cloudy
12:35 PM 78.8 °F - 69.8 °F 74% 29.98 in 10.0 mi South 18.4 mph - N/A   Mostly Cloudy
12:55 PM 80.6 °F 83.9 °F 69.8 °F 70% 29.97 in 10.0 mi South 19.6 mph - N/A   Mostly Cloudy
1:15 PM 80.6 °F 83.9 °F 69.8 °F 70% 29.96 in 10.0 mi South 16.1 mph 26.5 mph N/A   Scattered Clouds
1:35 PM 82.4 °F 86.3 °F 69.8 °F 66% 29.96 in 10.0 mi South 19.6 mph 24.2 mph N/A   Scattered Clouds
1:55 PM 82.4 °F 86.3 °F 69.8 °F 66% 29.95 in 10.0 mi South 18.4 mph 26.5 mph N/A   Mostly Cloudy
2:15 PM 82.4 °F 86.3 °F 69.8 °F 66% 29.94 in 10.0 mi South 17.3 mph 21.9 mph N/A   Mostly Cloudy
2:35 PM 82.4 °F 86.3 °F 69.8 °F 66% 29.93 in 10.0 mi South 19.6 mph - N/A   Scattered Clouds
2:55 PM 82.4 °F 86.3 °F 69.8 °F 66% 29.92 in 10.0 mi South 19.6 mph 23.0 mph N/A   Scattered Clouds
3:15 PM 82.4 °F 86.3 °F 69.8 °F 66% 29.92 in 10.0 mi South 17.3 mph - N/A   Mostly Cloudy
3:35 PM 82.4 °F 86.3 °F 69.8 °F 66% 29.91 in 10.0 mi South 15.0 mph - N/A   Scattered Clouds
3:55 PM 82.4 °F 87.2 °F 71.6 °F 70% 29.90 in 10.0 mi SSW 16.1 mph - N/A   Scattered Clouds
4:15 PM 82.4 °F 86.3 °F 69.8 °F 66% 29.90 in 10.0 mi SSW 18.4 mph - N/A   Scattered Clouds
4:35 PM 84.2 °F 88.4 °F 69.8 °F 62% 29.89 in 10.0 mi SSW 15.0 mph - N/A   Partly Cloudy
4:55 PM 84.2 °F 88.4 °F 69.8 °F 62% 29.89 in 10.0 mi SSW 17.3 mph - N/A   Partly Cloudy
5:15 PM 84.2 °F 88.4 °F 69.8 °F 62% 29.88 in 10.0 mi South 13.8 mph - N/A   Clear
5:35 PM 82.4 °F 87.2 °F 71.6 °F 70% 29.88 in 10.0 mi South 15.0 mph 20.7 mph N/A   Scattered Clouds
5:55 PM 82.4 °F 87.2 °F 71.6 °F 70% 29.88 in 10.0 mi South 12.7 mph - N/A   Scattered Clouds
6:15 PM 80.6 °F 83.9 °F 69.8 °F 70% 29.88 in 10.0 mi South 12.7 mph - N/A   Partly Cloudy
6:35 PM 82.4 °F 87.2 °F 71.6 °F 70% 29.87 in 10.0 mi South 11.5 mph - N/A   Clear
6:55 PM 82.4 °F 87.2 °F 71.6 °F 70% 29.87 in 10.0 mi South 10.4 mph - N/A   Clear
7:15 PM 80.6 °F 84.6 °F 71.6 °F 74% 29.87 in 10.0 mi South 10.4 mph - N/A   Clear
7:35 PM 80.6 °F 83.9 °F 69.8 °F 70% 29.87 in 10.0 mi South 11.5 mph - N/A   Clear
7:55 PM 78.8 °F - 69.8 °F 74% 29.87 in 10.0 mi SSE 9.2 mph - N/A   Clear
8:15 PM 78.8 °F - 69.8 °F 74% 29.88 in 10.0 mi SSE 9.2 mph - N/A   Clear
8:35 PM 78.8 °F - 69.8 °F 74% 29.88 in 10.0 mi SSE 11.5 mph - N/A   Clear
8:55 PM 77.0 °F - 69.8 °F 78% 29.87 in 10.0 mi SSE 9.2 mph - N/A   Clear
9:15 PM 75.2 °F - 68.0 °F 78% 29.87 in 3.0 mi SSE 10.4 mph - N/A   Clear
9:35 PM 75.2 °F - 68.0 °F 78% 29.88 in 10.0 mi SSE 9.2 mph - N/A   Clear
9:55 PM 75.2 °F - 66.2 °F 73% 29.89 in 10.0 mi SSE 10.4 mph - N/A   Clear
10:15 PM 75.2 °F - 66.2 °F 73% 29.90 in 10.0 mi SSE 8.1 mph - N/A   Clear
10:35 PM 75.2 °F - 66.2 °F 73% 29.90 in 10.0 mi SSE 8.1 mph - N/A   Clear
11:15 PM 75.2 °F - 66.2 °F 73% 29.90 in 10.0 mi SE 8.1 mph - N/A   Clear
11:35 PM 73.4 °F - 66.2 °F 78% 29.90 in 10.0 mi SE 5.8 mph - N/A   Clear
11:55 PM 73.4 °F - 66.2 °F 78% 29.90 in 10.0 mi SE 8.1 mph - N/A   Clear